Welcome! 

Register :: Login
Manufacturers Index - Beaver Power Tools, Callander Foundry

Beaver Power Tools, Callander Foundry
Guelph, ON, Canada
Manufacturer Class: Wood Working Machinery & Metal Working Machinery

Photo Index
The Vintage Machinery Photo Index is a place where members of this site can submit photos of old woodworking machinery. The Index is a valuable resource in that visitors to this site can see examples of machinery made by many different manufacturers.

Submitting Photos

If you would like to submit a photo of a machine made by this manufacturer, please Submit Machinery Photos.


There are currently 199 Photo Index submissions for this manufacturer.

Filter results by Machine Type:    
Tip You can sort the below table by clicking on the table title you wish to sort by

Insert Date
05/14/2017 Radial Arm Saw Beaver Super 900 Radial Arm Saw 10" 1963 G., Reed
05/08/2017 Band Saw 3300 14" Bandsaw 14" 3307BS Dueck, Hank
04/16/2017 Jig or Scroll Saw Uknown goose neck 24 inch Degenstein, Doran
04/08/2017 Table Saw 6200 9" Table saw Late 60's 22408 Hillis, Russell
04/07/2017 Drill Press bench model 3700 16" early 50's 7763 Lagueux, Jacques
02/25/2017 Jointer 4" jointer 4" unknowed but older unknown P, M
12/23/2016 Lathe, Wood wl 3400 lathe 11 inch x 36 inch ????? xxxxx Foster, Don
12/22/2016 Jig or Scroll Saw Scroll Saw JS 3100 24 inch Approx 1946 xxxxxxxxxxxxx Foster, Don
12/14/2016 Drill Press DP3700 16 1950's morris, steve
12/11/2016 Jig or Scroll Saw J. S. 2100 Jig Saw 18" 1950's 4620 Hughes, Scott
11/29/2016 Jig or Scroll Saw Beaver Scroll Saw 3100 5155 D'Angelo, Ermanno
11/27/2016 Table Saw 4200 10" blade about 1950 1412 Shaw, Art
10/19/2016 Table Saw Unisaw 7200? 10" 50-60's? UUB 1046 james, majrooh
10/16/2016 Jig or Scroll Saw JS-3100 24" 3346 Morin, Michel
08/09/2016 Table Saw 2200 8" 24038 P, M
07/31/2016 Radial Arm Saw Cat. no 1500 9" Mid 50's TT-1152 Morin, Michel
07/31/2016 Table Saw 3200 8" 34851 Light, Andy
06/08/2016 Table Saw tilting arbor table saw model 3200 9" 1948 21797 Garratt, Dennis
04/07/2016 Jig or Scroll Saw 3100 24" pre 1955 NA Musson, Gerry
03/28/2016 Lathe, Wood 3400 36 inch ? 271005 Hardy, Roland
03/20/2016 Band Saw 2300 12" 1954 Fleetham, Dale
12/07/2015 Band Saw W/T BN100 12 30's none morris, steve
12/05/2015 Sander 3900 belt 6"x 48" disk 12" 1305 Lagueux, Jacques
10/29/2015 Band Saw 12" Bandsaw 12" Unknown Unknown Gausden, Peter
10/10/2015 Jointer 2801 4" 167364 Lagueux, Jacques
10/02/2015 Table Saw 2200 8" 7324 P, M
08/12/2015 Table Saw Beaver CS-3200 8" Early '50s 32431 Asser, Matthew
08/05/2015 Table Saw CS-2200 8" 1954 M, R
08/01/2015 Band Saw Unknown Onknown P, M
07/07/2015 Band Saw Beaver 2300 12" 1952 Fleetham, Dale
05/30/2015 Table Saw Cat. No. CS3200 - 8" Tilt Arbor Heavy Duty Circular Saw 8" Bench Saw 1950 15766 Richard, Steve
05/25/2015 Table Saw Cat. No. CS3200 - 8" Tilt Arbor Heavy Duty Circular Saw 8" 1950 Richard, Steve
04/14/2015 Drill Press 700 11" benchtop 1970's 79175 MacDonald, Nicole
04/13/2015 Lathe, Wood unknown 30" pre-war n/a Shaw, Art
04/08/2015 Jointer 6'' jointer / model 3800 6 inches Pre 1953 6939 Myre, Alex
04/06/2015 Jig or Scroll Saw JS-2100 18" 3268 Schlossr, Marty
03/27/2015 Jointer 2800 4" 3303 P, M
03/22/2015 Lathe, Wood Older lathe P, M
03/14/2015 Band Saw BS3300 14" 1950's 5818 Cirtwill, Dan
02/27/2015 Lathe, Wood 3400 '50's morley, craig
01/31/2015 Jointer 2800 4" 7244 MacDonald, Keith
12/21/2014 Table Saw 3200 1950's 38938 Mackey, Roy
11/26/2014 Jig or Scroll Saw 24" Jig Saw, JS 3100 24" late 1940's not known Vickery, Trevor
11/25/2014 Jointer 6" Jointer, JS 3100 6" not known not known Vickery, Trevor
11/25/2014 Table Saw Model CS 2200 8 1951 6683 Vickery, Trevor
11/06/2014 Table Saw 25TCG3475A 8 inch 1952 7081 Irish, Phillip
11/05/2014 Table Saw Beaver/Model 3200 8 inch Tilt Arbor 1950's 24600 Irish, Phillip
10/15/2014 Table Saw CS2200 - 8" Tilt Arbor Circular Saw 8" 1950 6223 Richard, Steve
09/28/2014 Table Saw 2200 8" 1953? n/a Mackey, Roy
09/14/2014 Table Saw model 6200 est. 60's Scribby, K.
08/06/2014 Band Saw Beaver 14" bandsaw Mod. 3300 14" throat 1950 ± 1856 Doak, John
07/22/2014 Jig or Scroll Saw Scroll saw 3100 24" 1950's 4786 Laberge, Jim
06/18/2014 Jointer 2800 4" 22506 P, M
06/18/2014 Jointer 2801 4" 90638 P, M
05/16/2014 Table Saw cs-4200 10" 1330 Gillespie, Daniel
04/27/2014 Jointer 4" Jointer 4" unknown unknown Davis, Kerry
04/08/2014 Band Saw 2300 12" pre 1954 1321 P, M
02/03/2014 Table Saw Catalog# 84 WT 3475 R 8" 1953 none Schainost, Steven
01/28/2014 Lathe, Wood Model 3400 142-280 Costello, Gloria
01/24/2014 Jointer 2800 jointer 4'' 1953-1955 9407 Myre, Alexandre
01/05/2014 Band Saw model 2300 12" 1075 Orthner, Marlin
12/30/2013 Jig or Scroll Saw JS 3100 24" scrollsaw 24 inch 1946? n/a Mackey, Roy
12/04/2013 Lathe, Wood Beaver Power Tools 36" N/A N/A Mackey, Roy
09/25/2013 Sander Belt/Disc Sander 12", 6X48 late 40's, early 50's none morris, steve
09/14/2013 Band Saw Model 2300 12" 1960's 32176 Blakely, Ken
09/03/2013 Jig or Scroll Saw JS3100 24 Inch 1954 5617 Brydges, Mickey
08/24/2013 Jig or Scroll Saw Beaver Jig Saw Model JS 2100 18" 1948 - 1950 B Brydges, Mickey
08/21/2013 Drill Press DP2700 12 inch 1954 3028 Brydges, Mickey
07/01/2013 Jointer 3800 1950's 13976 Smith, Ian
06/21/2013 Table Saw Cat. No. CS3200 - 8" Tilt Arbor Heavy Duty Circular Saw Model 3200 8" Table Saw 1950 s 30573 Brazeau, Paul
05/23/2013 Drill Press 3700 DP early 50's morris, steve
05/15/2013 Band Saw 3300 14" by 8" 6203 Paulin, John
03/27/2013 Table Saw 1200 8" mid to late 50's 20179 Reed, Steve
02/19/2013 Lathe, Wood 3400 36" Pre 1954 slatford, Adam
02/01/2013 Table Saw Unisaw, Beaver badge. 10" 1950's, maybe 1960's - Karas, Peter
01/28/2013 Table Saw Model 4200 10" cabinet saw 1950's DeWaele, George
01/28/2013 Table Saw CS2200 - 8" Tilt Arbor Circular Saw 8" 1950 15070 Richard, Steve
01/28/2013 Table Saw Cat. No. CS3200 - 8" Tilt Arbor Heavy Duty Circular Saw 8' 1950 16727 Richard, Steve
12/18/2012 Table Saw Model 1200 8" 1957 Hanson, Jeff
12/07/2012 Jointer 4" JOINTER,MODEL 2800 4" 1951 3401 Pendykoski, Ed
12/01/2012 Jig or Scroll Saw 3100 24 inch pre 54 3700 morris, steve
10/08/2012 Lathe, Wood Beaver Model #3400 12" x 36" 1950's N/A Musson, Gerry
10/04/2012 Table Saw Model 3200 table saw 8" late 40s/early 50s, prior to purchase by Rockwell. 37181 Hampton, Larry
10/03/2012 Drill Press Model DP3700 drill press with mortising attachment 16" ca. 1955 Joslin, Jeff
08/05/2012 Lathe, Wood 3400 36 inch bed pre 54 morris, steve
07/24/2012 Jig or Scroll Saw 3100 24 inch 1950-60 #2770 leblanc, jean
05/21/2012 Jig or Scroll Saw JS2100 1480 Trimbee, Thomas
03/26/2012 Jig or Scroll Saw js-3100 24" pre 1954 4569 wandelt, charles
03/20/2012 Table Saw 1200 8" 1955 36160 Temple, Barry
01/22/2012 Band Saw 3300 14" 6281 Muileboom, Pete
01/18/2012 Drill Press Beaver 1700 28800 Tilson, Shaun
01/09/2012 Lathe, Wood Beaver wood lathe 3400 10" x 34" 1965-67 Pending Marshall, Steven
12/15/2011 Table Saw CS-4200 10 inch morris, steve
12/12/2011 Band Saw Model 3300 14" 1950's ? 7094 Mackey, Roy
11/23/2011 Jointer 3800 6" pre-1954 4441 Vibert, Jarrett
09/23/2011 Lathe, Wood Beaver11" 11" 1970's? GU538120 Larstone, Ray
09/02/2011 Lathe, Wood 3400 8" pre 1953 12176 Sherwood, Marc
08/18/2011 Drill Press Beaver 3300 16" drill press, floor standing 16" Pre-Rockwell 2202 Trotter, Chris
07/05/2011 Lathe, Wood Beaver 3400 Lathe 34 inch early 1950's Sidley, Jerome
07/04/2011 Band Saw 28115 10 Gillespie, Daniel
07/03/2011 Jointer 2800 4" jointer 4" 1950s 6726 MacInnis, Robert
06/27/2011 Band Saw 3300 14 pre 54 morris, steve
06/07/2011 Table Saw cs3200 9" unknown as yet unknown morris, steve
05/01/2011 Radial Arm Saw super 900 9 inch morris, steve
05/01/2011 Jointer 3800 6 inch post 54 morris, steve
05/01/2011 Table Saw 3200 Tablesaw 8 inch early 50's 24808 morris, steve
05/01/2011 Lathe, Wood 3400 gapbed 36 inch unknown morris, steve
02/16/2011 Band Saw 3300 14" 1948 - 1952 4178 Brydges, Mickey
02/13/2011 Drill Press 3700 16" floor model 16" 1950s 2147 MacInnis, Robert
02/05/2011 Table Saw 3200 8" 50s 4190 MacInnis, Robert
02/04/2011 Jig or Scroll Saw 24" Scoll Jig Saw Model JS 3100 24" 1950 2311 MacInnis, Robert
02/03/2011 Lathe, Wood 3400 36 " center 50s 12091 MacInnis, Robert
01/30/2011 Band Saw Model 3400 Serial Number A 12" 1950 A Brydges, Mickey
01/23/2011 Jig or Scroll Saw Scroll saw 24" unknown -please help JS 31081 Stockner, Todd
01/07/2011 Lathe, Wood 2400 12 x 48 unknown unknown Shaw, Art
12/17/2010 Radial Arm Saw turret radial arm saw 9 inch early 50's? 1580 morris, steve
11/17/2010 Band Saw 3300 14" 1950's? Corneil, Bill
11/14/2010 Table Saw Beaver model 1200 table saw 8" 1950/52 2071 Tison, Pierre
11/02/2010 Table Saw CS 2200 8" circa 1951 24755 Besselt, Albert
10/21/2010 Table Saw CS-4200 10" 1950's Hart, Greg
09/22/2010 Lathe, Wood 3400 36" 42008 allan, glen
08/29/2010 Table Saw 1200 8" 1949 Nicolle, Wayne
08/28/2010 Jig or Scroll Saw 18 In. Scroll Saw Mod. JS 2100 18 In. Fifties? 4100 Roberts, Bay
08/27/2010 Lathe, Wood 3400 lathe unk unk D, Dave
06/28/2010 Band Saw 2300 12" 1967 or later 50000 McCallum, Dan
06/15/2010 Jointer Benchtop Planer/Jointer - Model # 2800 4" Unknown 1444 Martinello, Tom
05/09/2010 Sander 3900 12" disk/6" X 48" belt post 1953 1972 Gyselman, Eric
04/22/2010 Jointer 4" jointer 4" Early but unknown unknown Wild, Kristian
03/23/2010 Lathe, Wood Model 3400 Wood lathe 15"/11" - 36" btw centers 1950's 9512 M, J
01/28/2010 Table Saw 3200 8" 20651 McCallum, Dan
01/28/2010 Band Saw 3300 14" 3176 McCallum, Dan
01/15/2010 Table Saw Model 1200 9 inch 27160 Buttigieg, Gerald
11/15/2009 Band Saw 3300 14 inch 40' or early 50's 5816 morris, steve
11/14/2009 Lathe, Wood 3400 gapbed 12" unknown morris, steve
11/08/2009 Band Saw model 3300 14"x7.5" 1950? Mitchell, Rob
10/10/2009 Jointer 3800 6" unknown not badged McCallum, Dan
04/10/2009 Jointer 3800 6" 1952-1953 11786 Neal, Garrick
04/05/2009 Jointer 3800 6" pre-1953 6029 Twiss, Dana
03/19/2009 Drill Press 2700 195? 3095 Neal, Garrick
03/02/2009 Jointer Beaver 3800 6 inch 1952-53 11786 Neal, Garrick
02/28/2009 Table Saw 8" Beaver Table Saw - 2200 8" 1950's 20676 Rodwell, Gene
02/24/2009 Table Saw 2200 8" ?? 14854 Hawkins, Bob
01/28/2009 Band Saw 2300 12" 1950's 3083 Foidart, Charles
01/22/2009 Table Saw beaver 2200 table saw 8" after 1954 Mantel, Mike
01/13/2009 Jointer Rockwell/Beaver 3800 6" unknown 14720 Stewart, Dean
12/30/2008 Table Saw 2200 8" Unknown 5449 Anderson, Rob
11/12/2008 Jointer 4800 6 inch un known unknown Butterill, Rick
11/01/2008 Jig or Scroll Saw JS 2100 18" 50s 2775 Lafleur, Alain
09/24/2008 Jointer Beaver 6" Jointer 3800 6" 1950-52 8318 morley, craig
09/11/2008 Band Saw Model 2300 Bandsaw 12" Unknown 1322 Cummings, Sheridan
09/11/2008 Jointer Model 2800 Jointer 4" Unknown 5566 Cummings, Sheridan
08/27/2008 Drill Press Model 3700/Ser 4769 floor model 16" pre 1953 Richardson, William
08/27/2008 Band Saw Beaver 2300 12" 1953/1954 Syer, Dave
08/27/2008 Other Beaver badges compared Syer, Dave
08/27/2008 Table Saw CS3200 8" TS 8" Late 1950s Syer, Dave
08/26/2008 Table Saw CS-2200 8" pre 1953 Syer, Dave
08/24/2008 Jointer 3800 6" Unknown Ujfalusi, Joseph
02/05/2008 Table Saw Early 3200 8" Apparently before 1952 Wetmore, Jack
12/17/2007 Jointer Beaver 3800 Jointer 6" pre-1953 1878 Syer, Dave
10/15/2007 Table Saw 9" Rockwell/Beaver Model 6200 9" Late 1960's Michaud, Peter
10/04/2007 Table Saw Beaver CS3200 8 " Early 1950s 22978 Cox, Harvey
09/15/2007 Drill Press Model 2700 12" late 40s to early 50s Lafleur, Alain
08/21/2007 Table Saw 9" table saw, model 6201 9" 1972 Michaud, Peter
08/20/2007 Table Saw 9" table saw, model 6200 9" 09-1969 Michaud, Peter
08/14/2007 Table Saw CS 2200 8" 1950's Pageot, Martin
07/25/2007 Lathe, Wood Model 3400 11" Very early 1950's Lafleur, Alain
07/15/2007 Jig or Scroll Saw Beaver 1100 18" unknown 67532 Burtini, Luciano
06/04/2007 Jointer 3800 6" biro, warren
05/16/2007 Table Saw CS3200 8" 1950's Camposilvan, Peter
03/26/2007 Table Saw Model 3200 Bench Top Table Saw 8" 1950's? Anderson, Rob
01/01/2007 Lathe, Wood Gap bed lathe model 3400 36" 1950's 9130 Hennessy, Chris
11/30/2006 Jointer 3800 6" 13329 Camposilvan, Peter
11/30/2006 Lathe, Wood 3600-0 Camposilvan, Peter
10/28/2006 Jointer ? 8" Jointer 1950 ? quam, olin
09/03/2006 Table Saw Model CS 3200 8" Very early 1950's Lafleur, Alain
08/17/2006 Table Saw 1200 8 Unknown Unknown Cummings, Sheridan
06/16/2006 Table Saw 1200 8" Unknown 16158 Bolton, Chris
03/02/2006 Table Saw 6200 9" ? P-8A1 huska, fred
01/06/2006 Jointer beaver jointer ser# 22545 4" unknown hillock, william
12/27/2005 Table Saw 8" Table Saw 1950 Howard, Garry
12/19/2005 Table Saw Model 2200 8" N/A Dollimore, Craig
11/20/2005 Band Saw Model 2300 12" bandsaw 12 inch ??? Wrate, David
10/29/2005 Jointer Beaver 3800 6" Approx 1950 Rathbone, Basil
08/30/2005 Band Saw Model 28115 Bandsaw 10" 1970s?? Carpenter, Tom
05/21/2005 Jointer Beaver Delta 37-220 6" 1988 Downie, John
05/01/2005 Band Saw 3300 14" 1960s? Davis, James
04/09/2005 Table Saw Model CS-3200 8" 1950's Mellow, Richard
04/09/2005 Table Saw Model CS-3200 8" 1950's Mellow, Richard
02/03/2005 Table Saw 9" left tilt cast iron top 21.75"x49.5" unknown Paine, Donald
10/18/2004 Table Saw 5200 8" Martin, Danny
09/01/2004 Jig or Scroll Saw model 3100 ser 5151 scoll saw n/a n/a Blanchard, John
09/01/2004 Drill Press model 3700 ser 4769 drill press n/a late 60's Blanchard, John
07/23/2004 Jig or Scroll Saw 3100 24" 1960 Gushue, Jeff
03/16/2004 Table Saw Tilting top table saw 8" Unknown Dowler, Leo
03/16/2004 Table Saw Tilting top table saw 8" Unknown Dowler, Leo
03/16/2004 Table Saw Tilting Top Table Saw 8" Unknown Dowler, Leo
01/07/2004 Table Saw model 3200 8 in. cast iron around 1950 Pelchat, Guy
12/19/2003 Jig or Scroll Saw mod.3100 ser.4325 24 inches unknown Pelchat, Guy
07/22/2003 Jig or Scroll Saw Beaver 18" scroll saw 18" biro, warren